Total_Precipitation_Accumulation
0.02 0.16 0.07 0.10 0.09 0.05 0.02 0.01 0.02 0.03 0.04 0.12 0.53 0.32 0.30 0.21 0.11 0.28 0.31 0.70 0.24 0.26 0.58 0.22 0.23 0.62 0.58 0.47 0.53 0.45 0.46 0.49 0.41 0.69 0.49 0.33 0.26 0.31 0.21 0.22 0.29 0.30 0.13
0.02 0.03 0.01 0.04 0.07 0.05 0.03 0.02 0.01 0.01 0.01 0.11 0.22 0.04 0.04 0.07 0.10 0.17 0.47 0.31 0.27 0.20 0.31 0.18 0.22 0.32 0.34 0.40 0.43 0.37 0.37 0.49 0.37 0.24 0.30 0.32 0.22 0.23 0.40 0.47 0.30 0.23 0.09
0.00 0.01 0.00 0.00 0.00 0.00 0.01 0.02 0.01 0.01 0.01 0.06 0.05 0.03 0.03 0.01 0.04 0.07 0.14 0.16 0.09 0.07 0.06 0.05 0.07 0.12 0.13 0.19 0.16 0.11 0.11 0.13 0.12 0.10 0.06 0.18 0.27 0.34 0.31 0.23 0.13 0.07 0.09
0.00 0.00 0.00 0.00 0.00 0.00 0.00 0.00 0.00 0.00 0.00 0.00 0.00 0.00 0.04 0.07 0.03 0.05 0.05 0.04 0.03 0.02 0.02 0.03 0.04 0.03 0.03 0.05 0.05 0.04 0.05 0.06 0.05 0.08 0.10 0.15 0.23 0.38 0.48 0.43 0.35 0.24 0.17
0.00 0.00 0.00 0.00 0.00 0.00 0.00 0.00 0.00 0.00 0.00 0.00 0.00 0.00 0.01 0.01 0.02 0.05 0.05 0.03 0.03 0.03 0.02 0.03 0.03 0.03 0.02 0.05 0.04 0.04 0.05 0.05 0.05 0.06 0.08 0.08 0.11 0.15 0.19 0.39 0.44 0.52 0.40
0.06 0.10 0.15 0.06 0.02 0.00 0.00 0.00 0.02 0.01 0.00 0.00 0.00 0.01 0.01 0.01 0.00 0.01 0.03 0.04 0.04 0.04 0.03 0.03 0.03 0.01 0.00 0.00 0.00 0.01 0.02 0.04 0.05 0.09 0.17 0.30 0.33 0.21 0.14 0.19 0.22 0.28 0.22
0.25 0.19 0.15 0.11 0.04 0.00 0.00 0.00 0.00 0.00 0.03 0.01 0.00 0.01 0.01 0.01 0.00 0.00 0.01 0.05 0.05 0.03 0.03 0.03 0.02 0.01 0.00 0.01 0.01 0.00 0.02 0.05 0.08 0.10 0.18 0.27 0.47 0.57 0.29 0.16 0.16 0.19 0.15
0.08 0.05 0.01 0.01 0.04 0.06 0.04 0.02 0.00 0.00 0.00 0.00 0.00 0.00 0.01 0.01 0.00 0.00 0.00 0.03 0.04 0.03 0.02 0.01 0.02 0.01 0.01 0.00 0.01 0.00 0.00 0.00 0.04 0.07 0.18 0.24 0.32 0.27 0.27 0.29 0.21 0.17 0.22
0.00 0.00 0.00 0.01 0.04 0.02 0.01 0.04 0.06 0.02 0.00 0.01 0.00 0.00 0.01 0.01 0.00 0.00 0.00 0.02 0.02 0.02 0.02 0.01 0.01 0.01 0.03 0.02 0.01 0.01 0.03 0.01 0.07 0.08 0.09 0.17 0.38 0.54 0.42 0.33 0.32 0.24 0.20
0.00 0.00 0.00 0.00 0.00 0.00 0.00 0.00 0.00 0.02 0.02 0.03 0.00 0.00 0.00 0.00 0.00 0.00 0.00 0.02 0.04 0.11 0.13 0.07 0.10 0.11 0.12 0.03 0.07 0.12 0.08 0.12 0.38 0.25 0.10 0.09 0.07 0.07 0.22 0.26 0.42 0.67 0.90
0.00 0.00 0.00 0.01 0.01 0.01 0.01 0.00 0.00 0.01 0.03 0.08 0.09 0.10 0.06 0.10 0.12 0.07 0.08 0.09 0.13 0.47 0.33 0.28 0.37 0.52 0.31 0.23 0.25 0.21 0.25 0.38 0.30 0.16 0.05 0.04 0.03 0.04 0.08 0.14 0.19 0.29 0.42
0.00 0.00 0.00 0.04 0.10 0.22 0.34 0.24 0.20 0.20 0.18 0.30 0.56 0.55 0.49 0.50 0.38 0.35 0.37 0.31 0.36 0.29 0.18 0.42 0.40 0.24 0.24 0.21 0.17 0.24 0.27 0.22 0.10 0.11 0.12 0.04 0.02 0.02 0.04 0.13 0.16 0.21 0.29
0.00 0.00 0.01 0.08 0.25 0.45 0.66 0.70 1.15 1.46 1.47 1.70 1.58 1.61 1.44 1.22 0.89 0.72 0.61 0.52 0.33 0.20 0.20 0.31 0.33 0.31 0.21 0.14 0.14 0.14 0.13 0.11 0.05 0.05 0.12 0.13 0.10 0.06 0.07 0.11 0.22 0.35 0.41
0.00 0.02 0.15 0.40 0.62 0.88 0.91 1.07 1.41 1.73 2.36 2.76 3.15 3.22 2.85 2.52 2.15 1.78 1.46 0.95 0.55 0.40 0.39 0.31 0.23 0.23 0.24 0.20 0.17 0.13 0.07 0.08 0.08 0.06 0.22 0.23 0.25 0.16 0.12 0.15 0.15 0.29 0.19
0.39 0.48 0.73 1.14 1.16 0.92 1.09 1.37 1.51 1.82 1.93 1.91 2.39 2.34 2.02 1.51 1.16 1.13 1.31 0.99 0.57 0.31 0.31 0.36 0.41 0.31 0.18 0.17 0.18 0.15 0.13 0.11 0.08 0.09 0.10 0.18 0.17 0.14 0.10 0.12 0.08 0.07 0.08
1.08 1.17 1.04 0.87 0.62 0.72 0.80 1.01 0.97 0.87 0.82 0.74 1.08 1.02 0.75 0.55 0.54 0.50 0.37 0.35 0.31 0.19 0.23 0.23 0.16 0.13 0.14 0.22 0.25 0.21 0.19 0.20 0.15 0.15 0.14 0.18 0.14 0.13 0.13 0.15 0.15 0.16 0.12
0.94 1.15 1.01 0.80 0.80 0.63 0.54 0.57 0.53 0.50 0.53 0.52 0.53 0.59 0.53 0.33 0.17 0.13 0.10 0.10 0.04 0.03 0.08 0.12 0.09 0.11 0.16 0.16 0.12 0.14 0.18 0.23 0.29 0.28 0.21 0.19 0.22 0.19 0.19 0.20 0.23 0.31 0.40
0.68 0.81 0.54 0.45 0.43 0.45 0.37 0.40 0.41 0.47 0.37 0.21 0.20 0.22 0.16 0.09 0.04 0.03 0.02 0.02 0.02 0.03 0.05 0.05 0.03 0.02 0.04 0.04 0.07 0.10 0.18 0.31 0.35 0.37 0.36 0.34 0.35 0.34 0.36 0.39 0.43 0.46 0.50
0.38 0.47 0.33 0.45 0.45 0.42 0.36 0.39 0.30 0.28 0.19 0.11 0.05 0.07 0.05 0.05 0.02 0.02 0.01 0.00 0.01 0.03 0.04 0.02 0.01 0.01 0.02 0.04 0.04 0.02 0.02 0.02 0.03 0.08 0.11 0.12 0.12 0.08 0.10 0.09 0.09 0.09 0.09
0.34 0.34 0.21 0.23 0.40 0.40 0.45 0.43 0.33 0.28 0.19 0.11 0.02 0.02 0.01 0.01 0.01 0.00 0.00 0.00 0.00 0.00 0.00 0.00 0.01 0.02 0.02 0.02 0.02 0.02 0.03 0.04 0.06 0.06 0.07 0.05 0.05 0.06 0.09 0.09 0.09 0.09 0.08
0.34 0.40 0.31 0.27 0.21 0.22 0.30 0.29 0.22 0.18 0.12 0.05 0.05 0.03 0.01 0.01 0.00 0.00 0.00 0.00 0.00 0.00 0.00 0.01 0.01 0.01 0.01 0.01 0.02 0.02 0.02 0.02 0.03 0.03 0.03 0.03 0.04 0.07 0.11 0.16 0.19 0.23 0.21
0.37 0.36 0.28 0.27 0.21 0.16 0.11 0.11 0.18 0.18 0.12 0.06 0.05 0.04 0.03 0.02 0.00 0.00 0.00 0.00 0.00 0.00 0.00 0.01 0.01 0.01 0.01 0.00 0.01 0.00 0.00 0.01 0.01 0.00 0.00 0.01 0.01 0.02 0.03 0.05 0.05 0.03 0.02
0.53 0.60 0.45 0.41 0.33 0.27 0.23 0.20 0.24 0.19 0.13 0.06 0.03 0.05 0.07 0.01 0.00 0.00 0.00 0.00 0.00 0.00 0.00 0.00 0.01 0.01 0.01 0.00 0.00 0.00 0.00 0.00 0.00 0.00 0.00 0.00 0.01 0.03 0.02 0.02 0.02 0.02 0.01
1.09 0.78 0.69 0.76 0.65 0.40 0.25 0.21 0.18 0.19 0.18 0.13 0.17 0.12 0.06 0.02 0.01 0.00 0.00 0.00 0.00 0.00 0.00 0.00 0.00 0.00 0.00 0.00 0.00 0.00 0.00 0.00 0.00 0.00 0.00 0.00 0.00 0.01 0.02 0.03 0.02 0.03 0.03
1.80 1.55 0.85 0.73 0.54 0.47 0.30 0.19 0.19 0.11 0.06 0.07 0.08 0.08 0.05 0.01 0.00 0.00 0.00 0.00 0.00 0.00 0.00 0.00 0.00 0.00 0.00 0.00 0.00 0.00 0.00 0.01 0.01 0.00 0.00 0.00 0.00 0.00 0.00 0.01 0.01 0.03 0.04
1.44 2.90 2.59 1.41 0.65 0.44 0.30 0.20 0.13 0.05 0.06 0.09 0.08 0.05 0.02 0.01 0.01 0.00 0.00 0.00 0.00 0.00 0.00 0.00 0.00 0.00 0.00 0.00 0.00 0.00 0.00 0.01 0.01 0.00 0.00 0.00 0.00 0.01 0.03 0.04 0.05 0.06 0.07